Location: Beaurecueil
(43.5122°N, 5.5450°E)
Time: 14:29:26
(UTC+00:00)

Cosmos 372 Rocket - Pass Details

Date: 18 September 2020
Orbit: 739 x 767 km, 74.1° (Epoch: 29 October)

Event Time Altitude Azimuth Distance (km) Brightness Sun altitude
Rises 18:42:01 0° 184° (S) 3,220 7.1 -11.6°
Reaches altitude 10° 18:44:26 10° 179° (S) 2,298 6.3 -12.0°
Maximum altitude 18:49:28 50° 105° (ESE) 967 4.1 -12.9°
Drops below altitude 10° 18:54:31 10° 30° (NNE) 2,305 6.3 -13.8°
Sets 18:56:56 0° 26° (NNE) 3,231 7.1 -14.2°
